Mountain Home AFB, ID

8:00 AM MST on December 05, 2016 (GMT -0700)
Mountain Home Air Force Base

Weather History for KMUO - August, 2013

Change the Weather History Date:

Sunday, August 18, 2013

  Actual Average Record
Temperature  
Mean Temperature 81 °F 74 °F  
Max Temperature 98 °F 92 °F 107 °F (2001)
Min Temperature 64 °F 56 °F 35 °F (1918)
Degree Days  
Heating Degree Days 0 0  
Month to date heating degree days 0 0  
Cooling Degree Days 16 10  
Month to date cooling degree days 212 208  
Growing Degree Days 32 (Base 50)    
Moisture  
Dew Point 44 °F    
Average Humidity 30    
Maximum Humidity 54    
Minimum Humidity 13    
Precipitation  
Precipitation 0.00 in 0.00 in 0.28 in (1968)
Month to date precipitation 0.06 0.07  
Sea Level Pressure  
Sea Level Pressure 29.91 in    
Wind  
Wind Speed 10 mph (NW)    
Max Wind Speed 16 mph    
Max Gust Speed 22 mph    
Visibility 10 miles    
Events      
T = Trace of Precipitation, MM = Missing Value Source: NWS Daily Summary

Daily Weather History Graph

Daily Weather History Graph

Search for Another Location

Airport or City:

Trip Planner

Search our weather history database for the weather conditions in past years. The results will help you decide how hot, cold, wet, or windy it might be!

Date:

Astronomy

Aug. 18, 2013 Rise Set
Actual Time 6:52 AM MDT 8:40 PM MDT
Civil Twilight 6:22 AM MDT 9:11 PM MDT
Nautical Twilight 5:45 AM MDT 9:47 PM MDT
Astronomical Twilight 5:05 AM MDT 10:27 PM MDT
Moon 6:51 PM MDT (8/18) 4:05 AM MDT (8/18)
Length of Visible Light 14h 48m
Length of Day
13h 47m
Waxing Gibbous, 92% of the Moon is Illuminated
Aug 18
Waxing Gibbous
Aug 20
Full
Aug 28
Last Quarter
Sep 5
New
Sep 12
First Quarter

Hourly Weather History & Observations

Time (MDT) Temp. Dew Point Humidity Pressure Visibility Wind Dir Wind Speed Gust Speed Precip Events Conditions
12:58 AM 71.6 °F 35.1 °F 26% 29.85 in 10.0 mi NW 9.2 mph - N/A   Clear
1:58 AM 71.2 °F 37.2 °F 29% 29.87 in 10.0 mi WNW 9.2 mph - N/A   Clear
2:58 AM 68.0 °F 47.8 °F 48% 29.88 in 10.0 mi WNW 10.4 mph - N/A   Clear
3:58 AM 69.3 °F 49.6 °F 50% 29.89 in 10.0 mi WNW 10.4 mph - N/A   Clear
4:58 AM 66.9 °F 49.8 °F 54% 29.91 in 10.0 mi WNW 6.9 mph - N/A   Clear
5:58 AM 67.5 °F 49.5 °F 52% 29.92 in 10.0 mi WNW 13.8 mph - N/A   Clear
6:58 AM 66.9 °F 48.9 °F 52% 29.95 in 10.0 mi West 8.1 mph - N/A   Clear
7:58 AM 68.2 °F 49.1 °F 50% 29.98 in 10.0 mi WNW 10.4 mph - N/A   Clear
8:58 AM 72.3 °F 48.9 °F 43% 29.99 in 10.0 mi NW 13.8 mph - N/A   Clear
9:58 AM 76.6 °F 48.9 °F 38% 29.99 in 10.0 mi NW 12.7 mph - N/A   Clear
10:58 AM 81.9 °F 48.0 °F 31% 29.99 in 10.0 mi WNW 10.4 mph - N/A   Clear
11:58 AM 86.4 °F 47.7 °F 26% 29.98 in 10.0 mi NW 13.8 mph 18.4 mph N/A   Clear
12:58 PM 90.3 °F 47.3 °F 23% 29.96 in 10.0 mi NW 11.5 mph - N/A   Clear
1:58 PM 92.3 °F 45.1 °F 20% 29.94 in 10.0 mi NNW 11.5 mph 19.6 mph N/A   Clear
2:58 PM 94.1 °F 44.1 °F 18% 29.93 in 10.0 mi WNW 5.8 mph 17.3 mph N/A   Clear
3:58 PM 95.5 °F 43.3 °F 17% 29.90 in 10.0 mi NW 15.0 mph 21.9 mph N/A   Clear
4:58 PM 97.5 °F 41.5 °F 15% 29.88 in 10.0 mi WNW 11.5 mph 17.3 mph N/A   Clear
5:58 PM 97.2 °F 43.0 °F 15% 29.86 in 10.0 mi NW 8.1 mph 20.7 mph N/A   Clear
6:58 PM 97.0 °F 39.6 °F 14% 29.85 in 10.0 mi NNW 13.8 mph - N/A   Clear
7:58 PM 94.5 °F 37.0 °F 13% 29.84 in 10.0 mi NNW 16.1 mph - N/A   Clear
8:58 PM 88.2 °F 39.4 °F 18% 29.86 in 10.0 mi WNW 5.8 mph - N/A   Clear
9:58 PM 81.3 °F 38.3 °F 21% 29.89 in 10.0 mi West 8.1 mph - N/A   Clear
10:58 PM 77.0 °F 41.0 °F 28% 29.91 in 10.0 mi NW 6.9 mph - N/A   Clear
11:58 PM 80.1 °F 37.4 °F 22% 29.91 in 10.0 mi NNW 8.1 mph - N/A   Clear